User: anonymous   Login
Location: Unspecified
(0.0000°N, 0.0000°E)
Time: 15:27:52
(UTC+00:00)
Language:

ISIS 1 - Orbit

View from above orbital plane
View from above orbital plane
View from above satellite
View from above satellite

Ground track
Ground track

The orbit data is extracted from the following two-line orbital elements,

1  3669U 69009A   17228.85142224 -.00000044 +00000-0 -30485-4 0  9990
2  3669 088.4383 141.6178 1710183 274.0343 066.7877 11.29441194995484
Epoch (UTC): 16 August 2017 20:26:02
Eccentricity: 0.1710183
inclination: 88.4383°
perigee height: 578 km
apogee height: 3448 km
right ascension of ascending node: 141.6178°
argument of perigee: 274.0343°
revolutions per day: 11.29441194
mean anomaly at epoch: 66.7877°
orbit number at epoch: 99548

The dashed part of the orbit path shows where the satellite is in the earth's shadow,  

DLR